This is the latest recevied weather packets stored in our database for station/object N9BLE. If no packets are shown the sender has not sent any weather packets the latest 10 day(s).
| Time | Temp. | Humidity | Pressure | Rain* | Wind** | Luminosity | Snow |
|---|---|---|---|---|---|---|---|
| 1777910846 | 21.67° C | 45% | 1005.6 hPa | 0 mm | - | 70 W/m² | - |
| 1777910542 | 21.67° C | 45% | 1005.8 hPa | 0 mm | - | 223 W/m² | - |
| 1777910239 | 21.11° C | 47% | 1005.9 hPa | 0 mm | - | 88 W/m² | - |
| 1777909936 | 21.11° C | 42% | 1005.8 hPa | 0 mm | - | 75 W/m² | - |
| 1777909633 | 21.11° C | 46% | 1006 hPa | 0 mm | - | 62 W/m² | - |
| 1777909330 | 20.56° C | 46% | 1006.1 hPa | 0 mm | - | 56 W/m² | - |
| 1777909028 | 20.56° C | 47% | 1006 hPa | 0 mm | - | 224 W/m² | - |
| 1777908726 | 20.56° C | 46% | 1005.9 hPa | 0 mm | - | 458 W/m² | - |
| 1777908423 | 20° C | 49% | 1006.2 hPa | 0 mm | - | 91 W/m² | - |
| 1777908119 | 20° C | 50% | 1006.3 hPa | 0 mm | - | 111 W/m² | - |
| 1777907815 | 20° C | 49% | 1006.2 hPa | 0 mm | - | 54 W/m² | - |
| 1777907516 | 19.44° C | 51% | 1006.4 hPa | 0 mm | - | 50 W/m² | - |
| 1777907213 | 19.44° C | 50% | 1006.5 hPa | 0 mm | - | 50 W/m² | - |
| 1777906910 | 18.89° C | 50% | 1006.5 hPa | 0 mm | - | 178 W/m² | - |
| 1777906607 | 18.89° C | 52% | 1006.5 hPa | 0 mm | - | 228 W/m² | - |
| 1777906302 | 18.89° C | 52% | 1006.5 hPa | 0 mm | - | 57 W/m² | - |
| 1777906000 | 18.33° C | 54% | 1006.4 hPa | 0 mm | - | 166 W/m² | - |
| 1777905696 | 18.33° C | 52% | 1006.3 hPa | 0 mm | - | 48 W/m² | - |
| 1777905393 | 17.78° C | 57% | 1006.5 hPa | 0 mm | - | 49 W/m² | - |
| 1777905091 | 17.78° C | 57% | 1006.6 hPa | 0 mm | - | 46 W/m² | - |
| 1777904788 | 17.78° C | 57% | 1006.6 hPa | 0 mm | - | 47 W/m² | - |
| 1777904485 | 17.22° C | 60% | 1006.6 hPa | 0 mm | - | 47 W/m² | - |
| 1777904181 | 16.67° C | 62% | 1006.8 hPa | 0 mm | - | 45 W/m² | - |
| 1777903879 | 16.11° C | 63% | 1006.9 hPa | 0 mm | - | 140 W/m² | - |
| 1777903575 | 15.56° C | 64% | 1007 hPa | 0 mm | - | 45 W/m² | - |
* Rain latest hour (hover to see other rain measurements)
** Current wind speed in m/s (hover to see current wind gust speed)